When you browse on this site, cookies collect data to enhance your experience and personalize the content and advertising you see.
Visit our Privacy Policy to learn more. By continuing to use the site, you agree to this use of cookies and data.
  • In Austria
  • List of Countries
  • For 7 days
  • Water Temperature
  • Weather Map
  • News
  • Weather Widgets
  • user-avatar
    Login

    Hourly Weather Huichapan

    Today, 6 June, Saturday

    Time Temperature Precipitation Wind Pressure Humidity
    00:00 +16°C° 0 mm 1 mps 593 mmHg 88%
    01:00 +15°C° 0 mm 1 mps 593 mmHg 89%
    02:00 +15°C° 0 mm 1 mps 592 mmHg 91%
    03:00 +15°C° 0 mm 1 mps 592 mmHg 90%
    04:00 +14°C° 0 mm 1 mps 592 mmHg 90%
    05:00 +14°C° 0 mm 1 mps 592 mmHg 89%
    06:00 +16°C° 0 mm 1 mps 593 mmHg 78%
    07:00 +19°C° 0 mm 1 mps 594 mmHg 67%
    08:00 +21°C° 0 mm 1 mps 595 mmHg 56%
    09:00 +23°C° 0 mm 1 mps 596 mmHg 49%
    10:00 +25°C° 0 mm 2 mps 596 mmHg 42%
    11:00 +26°C° 0 mm 2 mps 596 mmHg 34%
    12:00 +27°C° 0 mm 3 mps 596 mmHg 32%
    13:00 +28°C° 0 mm 4 mps 596 mmHg 30%
    14:00 +29°C° 0 mm 4 mps 595 mmHg 28%
    15:00 +28°C° 0 mm 5 mps 595 mmHg 32%
    16:00 +27°C° 0 mm 5 mps 594 mmHg 36%
    17:00 +26°C° 0 mm 6 mps 594 mmHg 40%
    18:00 +23°C° 0 mm 5 mps 594 mmHg 51%
    19:00 +21°C° 0 mm 4 mps 594 mmHg 62%
    20:00 +19°C° 0 mm 3 mps 594 mmHg 73%
    21:00 +19°C° 0 mm 2 mps 594 mmHg 77%
    22:00 +18°C° 0 mm 2 mps 594 mmHg 80%
    23:00 +18°C° 0 mm 1 mps 594 mmHg 84%

    Tomorrow, 7 June, Sunday

    Time Temperature Precipitation Wind Pressure Humidity
    00:00 +19°C° 0.1 mm 1 mps 594 mmHg 83%
    01:00 +19°C° 0.1 mm 1 mps 593 mmHg 81%
    02:00 +19°C° 0.1 mm 1 mps 593 mmHg 80%
    03:00 +18°C° 0.1 mm 1 mps 593 mmHg 82%
    04:00 +18°C° 0.1 mm 1 mps 593 mmHg 83%
    05:00 +16°C° 0.1 mm 0 mps 593 mmHg 85%
    06:00 +19°C° 0 mm 1 mps 593 mmHg 76%
    07:00 +21°C° 0 mm 1 mps 594 mmHg 67%
    08:00 +23°C° 0 mm 1 mps 595 mmHg 58%
    09:00 +25°C° 0 mm 2 mps 595 mmHg 50%
    10:00 +26°C° 0 mm 3 mps 596 mmHg 43%
    11:00 +28°C° 0 mm 4 mps 596 mmHg 36%
    12:00 +28°C° 0 mm 4 mps 595 mmHg 36%
    13:00 +28°C° 0 mm 4 mps 595 mmHg 37%
    14:00 +28°C° 0 mm 5 mps 594 mmHg 37%
    15:00 +27°C° 0.1 mm 4 mps 594 mmHg 41%
    16:00 +25°C° 0.1 mm 4 mps 593 mmHg 46%
    17:00 +24°C° 0.1 mm 3 mps 593 mmHg 51%
    18:00 +22°C° 0.4 mm 3 mps 593 mmHg 57%
    19:00 +21°C° 0.4 mm 2 mps 593 mmHg 63%
    20:00 +21°C° 0.4 mm 1 mps 593 mmHg 69%
    21:00 +21°C° 0 mm 1 mps 593 mmHg 71%
    22:00 +20°C° 0 mm 1 mps 593 mmHg 73%
    23:00 +17°C° 0 mm 0 mps 593 mmHg 76%

    Day after tomorrow, 8 June, Monday

    Time Temperature Precipitation Wind Pressure Humidity
    00:00 +19°C° 0 mm 1 mps 593 mmHg 76%
    01:00 +19°C° 0 mm 1 mps 593 mmHg 76%
    02:00 +19°C° 0 mm 1 mps 593 mmHg 76%
    03:00 +18°C° 0 mm 1 mps 593 mmHg 76%
    04:00 +18°C° 0 mm 1 mps 593 mmHg 76%
    05:00 +18°C° 0 mm 1 mps 592 mmHg 76%
    06:00 +19°C° 0 mm 2 mps 594 mmHg 68%
    07:00 +21°C° 0 mm 2 mps 595 mmHg 61%
    08:00 +24°C° 0 mm 3 mps 596 mmHg 53%
    09:00 +26°C° 0 mm 3 mps 596 mmHg 47%
    10:00 +27°C° 0 mm 4 mps 596 mmHg 42%
    11:00 +29°C° 0 mm 5 mps 596 mmHg 36%
    12:00 +30°C° 0 mm 5 mps 596 mmHg 32%
    13:00 +30°C° 0 mm 5 mps 596 mmHg 28%
    14:00 +32°C° 0 mm 4 mps 596 mmHg 24%
    15:00 +32°C° 0 mm 4 mps 595 mmHg 25%
    16:00 +30°C° 0 mm 4 mps 595 mmHg 25%
    17:00 +30°C° 0 mm 4 mps 595 mmHg 26%
    18:00 +28°C° 0.4 mm 3 mps 595 mmHg 40%
    19:00 +25°C° 0.4 mm 2 mps 595 mmHg 54%
    20:00 +23°C° 0.4 mm 1 mps 594 mmHg 68%
    21:00 +22°C° 0.3 mm 1 mps 594 mmHg 69%
    22:00 +22°C° 0.3 mm 1 mps 595 mmHg 70%
    23:00 +21°C° 0.3 mm 1 mps 595 mmHg 72%

    9 June, Tuesday

    Time Temperature Precipitation Wind Pressure Humidity
    00:00 +21°C° 0.2 mm 1 mps 594 mmHg 72%
    01:00 +20°C° 0.2 mm 1 mps 594 mmHg 73%
    02:00 +20°C° 0.2 mm 1 mps 594 mmHg 73%
    03:00 +19°C° 0 mm 1 mps 594 mmHg 74%
    04:00 +19°C° 0 mm 1 mps 594 mmHg 75%
    05:00 +19°C° 0 mm 1 mps 594 mmHg 76%
    06:00 +20°C° 0 mm 1 mps 595 mmHg 68%
    07:00 +21°C° 0 mm 2 mps 595 mmHg 60%
    08:00 +24°C° 0 mm 2 mps 596 mmHg 53%
    09:00 +26°C° 0 mm 2 mps 597 mmHg 45%
    10:00 +27°C° 0 mm 2 mps 597 mmHg 37%
    11:00 +29°C° 0 mm 3 mps 597 mmHg 29%
    12:00 +30°C° 0 mm 4 mps 597 mmHg 27%
    13:00 +30°C° 0 mm 4 mps 597 mmHg 26%
    14:00 +32°C° 0 mm 5 mps 597 mmHg 24%
    15:00 +30°C° 0 mm 6 mps 596 mmHg 26%
    16:00 +29°C° 0 mm 7 mps 596 mmHg 28%
    17:00 +29°C° 0 mm 7 mps 595 mmHg 30%
    18:00 +27°C° 0 mm 6 mps 595 mmHg 36%
    19:00 +25°C° 0 mm 4 mps 595 mmHg 42%
    20:00 +21°C° 0 mm 2 mps 595 mmHg 49%
    21:00 +21°C° 0 mm 2 mps 595 mmHg 53%
    22:00 +20°C° 0 mm 2 mps 595 mmHg 58%
    23:00 +20°C° 0 mm 1 mps 595 mmHg 63%

    10 June, Wednesday

    Time Temperature Precipitation Wind Pressure Humidity
    00:00 +19°C° 0 mm 1 mps 595 mmHg 66%
    01:00 +19°C° 0 mm 1 mps 594 mmHg 70%
    02:00 +18°C° 0 mm 1 mps 594 mmHg 74%
    03:00 +18°C° 0 mm 1 mps 594 mmHg 77%
    04:00 +18°C° 0 mm 1 mps 594 mmHg 80%
    05:00 +15°C° 0 mm 0 mps 594 mmHg 84%
    06:00 +19°C° 0 mm 1 mps 595 mmHg 74%
    07:00 +20°C° 0 mm 2 mps 596 mmHg 65%
    08:00 +21°C° 0 mm 2 mps 597 mmHg 55%
    09:00 +24°C° 0 mm 3 mps 597 mmHg 47%
    10:00 +25°C° 0 mm 4 mps 597 mmHg 39%
    11:00 +27°C° 0 mm 5 mps 598 mmHg 31%
    12:00 +27°C° 0 mm 6 mps 598 mmHg 31%
    13:00 +28°C° 0 mm 7 mps 597 mmHg 30%
    14:00 +28°C° 0 mm 7 mps 597 mmHg 30%
    15:00 +27°C° 0 mm 7 mps 597 mmHg 36%
    16:00 +26°C° 0 mm 7 mps 596 mmHg 42%
    17:00 +23°C° 0 mm 8 mps 596 mmHg 48%
    18:00 +22°C° 0 mm 6 mps 596 mmHg 57%
    19:00 +20°C° 0 mm 5 mps 596 mmHg 65%
    20:00 +18°C° 0 mm 4 mps 596 mmHg 74%
    21:00 +18°C° 0 mm 3 mps 596 mmHg 77%
    22:00 +17°C° 0 mm 3 mps 596 mmHg 81%
    23:00 +17°C° 0 mm 2 mps 596 mmHg 84%

    11 June, Thursday

    Time Temperature Precipitation Wind Pressure Humidity
    00:00 +16°C° 0 mm 2 mps 596 mmHg 86%
    01:00 +16°C° 0 mm 2 mps 595 mmHg 88%
    02:00 +15°C° 0 mm 1 mps 595 mmHg 90%
    03:00 +15°C° 0 mm 1 mps 595 mmHg 91%
    04:00 +15°C° 0 mm 1 mps 595 mmHg 93%
    05:00 +14°C° 0 mm 1 mps 595 mmHg 95%
    06:00 +16°C° 0 mm 2 mps 595 mmHg 85%
    07:00 +17°C° 0 mm 3 mps 596 mmHg 76%
    08:00 +19°C° 0 mm 3 mps 597 mmHg 66%
    09:00 +20°C° 0 mm 4 mps 597 mmHg 59%
    10:00 +22°C° 0 mm 4 mps 597 mmHg 52%
    11:00 +23°C° 0 mm 5 mps 598 mmHg 46%
    12:00 +25°C° 0 mm 5 mps 597 mmHg 46%
    13:00 +24°C° 0 mm 6 mps 597 mmHg 47%
    14:00 +24°C° 0 mm 6 mps 596 mmHg 47%
    15:00 +23°C° 0 mm 6 mps 596 mmHg 50%
    16:00 +22°C° 0 mm 6 mps 596 mmHg 53%
    17:00 +22°C° 0 mm 7 mps 596 mmHg 56%
    18:00 +20°C° 0 mm 5 mps 596 mmHg 64%
    19:00 +19°C° 0 mm 4 mps 596 mmHg 71%
    20:00 +17°C° 0 mm 3 mps 596 mmHg 79%
    21:00 +17°C° 0 mm 2 mps 596 mmHg 83%
    22:00 +16°C° 0 mm 2 mps 596 mmHg 86%
    23:00 +15°C° 0 mm 2 mps 596 mmHg 90%
    Show more